Regional Weather Roundup
Issued by NWS

Home | Current Version | Previous Version | Text Only | Print | Product List | Glossary Off
Versions: 1 2 3 4 5 6 7 8 9 10 11 12 13 14 15 16 17 18 19 20 21 22 23 24 25 26 27

000
ASUS45 KBOI 290510
RWRID

IDAHO REGIONAL WEATHER ROUNDUP
NATIONAL WEATHER SERVICE BOISE ID
1100 PM MDT SAT MAY 28 2016

NOTE: "FAIR" INDICATES FEW OR NO CLOUDS BELOW 12000 FEET
WITH NO SIGNIFICANT WEATHER AND/OR OBSTRUCTIONS TO VISIBILITY

IDZ012-014-290600-
SOUTHWEST IDAHO


CITY           SKY/WX    TMP DP  RH WIND       PRES   REMARKS
BOISE          CLEAR     58  31  35 SW3       30.02R
CALDWELL       CLEAR     58  36  43 CALM      30.01R
MOUNTAIN HOME  CLEAR     61  35  37 NW6       30.03R
$$

IDZ016-017-290600-
SOUTHCENTRAL IDAHO


CITY           SKY/WX    TMP DP  RH WIND       PRES   REMARKS
BURLEY         CLEAR     51  39  63 S3        30.06R
JEROME         CLEAR     53  29  39 SE3       30.07R
TWIN FALLS     CLEAR     51  31  46 SW5       30.06S
$$

IDZ019>023-290600-
SOUTHEAST IDAHO


CITY           SKY/WX    TMP DP  RH WIND       PRES   REMARKS
IDAHO FALLS    CLEAR     51  32  48 SE8       30.10R
POCATELLO      CLEAR     45  33  63 S7        30.10R
REXBURG        CLEAR     52  28  39 S6        30.10R
$$

IDZ006-010-011-018-031-032-290600-
CENTRAL IDAHO MOUNTAINS


CITY           SKY/WX    TMP DP  RH WIND       PRES   REMARKS
MCCALL         CLEAR     47  32  56 N3        30.08R
HAILEY         CLEAR     45  36  70 NW5       30.11R
STANLEY          N/A     37  25  61 S5        30.14R WCI  33
SALMON         CLEAR     48  36  61 CALM      30.03R
CHALLIS        CLEAR     54  25  32 NW3       30.05R
$$

IDZ002-004-006-007-026-290600-
NORTHERN IDAHO


CITY           SKY/WX    TMP DP  RH WIND       PRES   REMARKS
LEWISTON       CLEAR     59  43  55 S8        30.00R
LOWELL           N/A     52  45  77 N3        30.04R
COEUR D`ALENE  PTCLDY    54  41  62 CALM      30.00S
MULLAN PASS    PTCLDY    40  30  67 S5        30.08F
$$




USA.gov is the U.S. government's official web portal to all federal, state and local government web resources and services.